Home   Weather   St. Paul   Past weeks
Flag for USA

Past Weather in St. Paul, Minnesota, USA — Yesterday and Last 2 Weeks

Now
5 °F

Sunny.


Feels Like: -4 °F
Forecast: 18 / 2 °F
Wind: 5 mph from Northwest

Location: St. Paul Downtown Holman Field

Current Time: Feb 18, 2019 at 9:12:30 am

Latest Report: Feb 18, 2019 at 7:53 am


Visibility: 10 mi

Pressure: 30.46 "Hg

Humidity: 83%

Dew Point: 1 °F

Location of St. PaulLocation

Past Weather in St. Paul — Graph

°F

St. Paul Temperature Yesterday

Maximum temperature yesterday: 25 °F (at 1:53 pm)
Minimum temperature yesterday: 14 °F (at 11:53 pm)
Average temperature yesterday: 20 °F

High & Low Weather Summary for the Past Weeks

 TemperatureHumidityPressure
High38 °F (Feb 3, 11:53 am)97% (Feb 3, 7:11 am)30.94 "Hg (Feb 3, 7:11 am)
Low-13 °F (Feb 9, 7:53 am)48% (Feb 17, 4:53 pm)29.58 "Hg (Feb 14, 5:53 am)
Average15 °F76%30.09 "Hg
* Reported Feb 3 7:11 am — Feb 18 7:53 am, St. Paul. Weather by CustomWeather, © 2019

Note: Actual official high and low records may vary slightly from our data, if they occured in-between our weather recording intervals... More about our weather records

Advertising

St. Paul Weather History for the Previous 24 Hours

Scroll right to see more
 ConditionsComfort  
Time TempWeatherWind HumidityBarometerVisibility
7:53 am
Mon, Feb 18
5 °FSunny.5 mph83%30.46 "Hg10 mi
6:53 am5 °FClear.5 mph83%30.42 "Hg10 mi
5:53 am6 °FClear.6 mph79%30.39 "Hg10 mi
4:53 am7 °FClear.3 mph79%30.37 "Hg10 mi
3:53 am8 °FClear.7 mph76%30.34 "Hg10 mi
2:53 am8 °FClear.No wind76%30.33 "Hg10 mi
1:53 am11 °FClear.8 mph70%30.30 "Hg10 mi
12:53 am12 °FClear.7 mph67%30.28 "Hg10 mi
11:53 pm
Sun, Feb 17
14 °FClear.8 mph64%30.25 "Hg10 mi
10:53 pm17 °FPassing clouds.9 mph59%30.24 "Hg10 mi
9:53 pm18 °FPassing clouds.10 mph59%30.22 "Hg10 mi
8:53 pm19 °FPassing clouds.10 mph57%30.19 "Hg10 mi
7:53 pm20 °FOvercast.10 mph57%30.17 "Hg10 mi
6:53 pm22 °FOvercast.12 mph52%30.15 "Hg10 mi
5:53 pm23 °FOvercast.12 mph50%30.11 "Hg10 mi
4:53 pm24 °FOvercast.16 mph48%30.09 "Hg10 mi
3:53 pm25 °FOvercast.12 mph53%30.07 "Hg10 mi
2:53 pm25 °FOvercast.9 mph60%30.06 "Hg10 mi
1:53 pm25 °FScattered clouds.14 mph63%30.05 "Hg10 mi
12:53 pm23 °FLight snow. Mostly cloudy.13 mph68%30.06 "Hg5 mi
12:17 pm23 °FMostly cloudy.16 mph68%30.04 "Hg6 mi
12:00 pm23 °FMostly cloudy.10 mph68%30.04 "Hg10 mi
11:23 am22 °FMostly cloudy.15 mph72%30.05 "Hg6 mi
10:53 am21 °FLight snow. Mostly cloudy.16 mph74%30.07 "Hg2 mi
9:56 am20 °FLight snow. Mostly cloudy.16 mph74%30.04 "Hg3 mi
9:41 am20 °FLight snow. Mostly cloudy.16 mph74%30.04 "Hg2 mi
Weather by CustomWeather, © 2019

See weather overview